CAPE
48 30 37 51 44 45 42 39 49 61 88 60 31 15 29 20 118 124 16 59 40 4 12 27 39 40 33 8 22 36 61 68 23 10 138 99 77 14 30 1 5 12 12 4 0 23 10 0 0 0 0 0 0 0
45 41 50 62 53 49 44 40 49 75 98 63 36 18 33 18 127 140 29 99 48 4 9 23 32 21 2 1 8 4 7 2 14 11 44 63 1 0 42 22 0 32 24 3 1 4 0 0 0 0 0 0 0 0
58 55 51 51 73 64 47 45 46 72 55 44 39 16 23 28 93 126 31 27 36 2 5 17 13 2 8 11 18 6 3 5 2 0 0 0 4 0 5 0 0 0 0 0 0 0 0 0 0 0 0 0 0 0
67 57 40 51 77 76 51 45 45 73 37 37 27 19 29 33 71 96 20 13 1 11 22 6 0 3 2 3 4 11 8 17 25 0 0 0 0 0 0 0 0 0 0 0 0 0 0 0 0 0 0 0 0 0
63 49 48 74 87 64 44 43 50 59 36 31 17 22 35 26 44 8 21 12 8 9 7 0 4 3 0 2 5 3 10 5 7 0 0 0 0 0 0 0 0 0 0 0 0 0 0 0 0 0 0 0 0 0
53 42 44 75 69 38 35 42 44 39 31 20 13 20 37 25 30 23 0 3 17 15 6 0 2 7 5 5 4 0 0 0 4 0 3 1 0 0 0 0 0 0 0 0 0 0 0 0 0 0 0 0 0 0
49 48 69 71 45 26 37 32 35 33 20 15 19 31 30 18 21 5 12 2 22 7 3 0 0 7 7 2 0 0 0 0 0 2 2 3 0 0 0 0 0 0 0 0 0 0 0 0 0 0 0 0 0 0
54 67 70 64 39 18 38 38 41 28 21 21 25 27 33 27 24 7 5 5 0 13 0 0 0 1 4 5 0 0 0 0 0 0 0 1 0 0 0 0 0 0 0 0 0 0 0 0 0 0 0 0 0 0
64 82 53 47 20 17 40 41 42 27 26 19 36 41 2 6 4 3 1 12 0 0 0 0 0 0 0 1 0 0 0 0 0 0 0 0 0 0 0 0 0 0 0 0 0 0 0 0 0 0 0 0 0 0
68 57 55 25 13 26 37 39 38 17 23 23 24 2 2 4 1 17 10 3 4 1 0 0 0 0 0 0 0 0 0 0 0 0 0 0 0 0 0 0 0 0 0 0 0 0 0 0 0 0 0 0 0 0
55 33 35 26 32 39 51 33 12 15 25 8 0 3 4 13 2 3 2 4 2 0 0 0 0 0 0 0 0 0 0 0 0 0 0 0 0 0 0 0 0 0 0 0 0 0 0 0 0 0 0 0 0 0
22 27 34 33 29 45 42 28 9 25 6 1 0 11 5 4 1 0 0 0 0 0 0 0 0 0 0 0 0 0 0 0 0 0 0 0 0 0 0 0 0 0 0 0 0 0 0 0 0 0 0 0 0 0
15 34 44 31 40 45 24 6 6 10 13 8 4 3 4 0 0 0 0 0 0 0 0 0 0 0 0 0 0 0 0 0 0 0 0 0 0 0 0 0 0 0 0 0 0 0 0 0 0 0 0 0 0 0
14 36 23 29 42 23 8 7 15 12 3 2 1 0 0 0 0 0 0 0 0 0 0 0 0 0 0 0 0 0 0 0 0 0 0 0 0 0 0 0 0 0 0 0 0 0 0 0 0 0 0 0 0 0
23 16 8 43 19 6 5 10 12 4 1 2 0 0 0 0 0 0 0 0 0 0 0 0 0 0 0 0 0 0 0 0 0 0 0 0 0 0 0 0 0 0 0 0 0 0 0 0 0 0 0 0 0 0
13 9 8 13 10 19 7 5 6 6 3 5 0 0 0 0 0 0 0 0 0 0 0 0 0 0 0 0 0 0 0 0 0 0 0 0 0 0 0 0 0 0 0 0 0 0 0 0 0 0 0 0 0 0
5 6 7 5 18 12 7 3 2 1 5 0 0 0 0 0 0 0 0 0 0 0 0 0 0 0 0 0 0 0 0 0 0 0 0 0 0 0 0 0 0 0 0 0 0 0 0 0 0 0 0 0 0 0
20 0 8 18 9 7 5 2 1 1 1 0 0 0 0 0 0 0 0 0 0 0 0 0 0 0 0 0 0 0 0 0 0 0 0 0 0 0 0 0 0 0 0 0 0 0 0 0 0 0 0 0 0 0
2 8 15 11 7 0 0 0 1 0 0 0 0 0 0 0 0 0 0 0 0 0 0 0 0 0 0 0 0 0 0 0 0 0 0 0 0 0 0 0 0 0 0 0 0 0 0 0 0 0 0 0 0 0
9 11 9 4 2 0 0 1 4 0 0 0 0 0 0 0 0 0 0 0 0 0 0 0 0 0 0 0 0 0 0 0 0 0 0 0 0 0 0 0 0 0 0 0 0 0 0 0 0 0 0 0 0 0
4 7 4 0 0 0 1 1 0 2 0 0 0 0 0 0 0 0 0 0 0 0 0 0 0 0 0 0 0 0 0 0 0 0 0 0 0 0 0 0 0 0 0 0 0 0 0 0 0 0 0 0 0 0
0 6 0 0 0 1 2 6 2 0 0 1 0 0 0 0 0 0 0 0 0 0 0 0 0 0 0 0 0 0 0 0 0 0 0 0 0 0 0 0 0 0 0 0 0 0 0 0 0 0 0 0 0 0
1 0 0 0 0 0 0 0 0 0 0 0 0 0 0 0 0 0 0 0 0 0 0 0 0 0 0 0 0 0 0 0 0 0 0 0 0 0 0 0 0 0 0 0 0 0 0 0 0 0 0 0 0 0
0 0 0 0 0 0 0 0 0 0 0 0 0 0 0 0 0 0 0 0 0 0 0 0 0 0 0 0 0 0 0 0 0 0 0 0 0 0 0 0 0 0 0 0 0 0 0 1 0 1 1 2 2 3
0 0 0 0 0 0 0 0 0 0 0 0 0 0 0 0 0 0 0 0 0 0 0 0 0 0 0 0 0 0 0 0 0 0 0 0 0 0 0 0 0 1 0 1 2 2 3 1 1 3 4 7 3 5
0 0 0 0 0 0 0 0 0 0 0 0 0 0 0 0 0 0 0 0 0 0 0 0 0 0 0 0 0 0 0 0 0 0 0 0 1 3 3 2 3 2 0 1 4 5 5 7 12 8 7 10 13 19
0 0 0 0 0 0 0 0 0 0 0 0 0 0 0 0 0 0 0 0 0 0 0 0 0 0 0 0 0 0 0 0 0 0 0 0 0 0 0 2 4 3 2 5 8 15 19 20 19 15 13 13 11 12
0 0 0 0 0 0 0 0 0 0 0 0 0 0 0 0 0 0 0 0 0 0 0 0 0 0 0 0 0 0 0 0 0 0 0 0 0 0 0 0 3 0 3 14 17 10 6 7 8 9 9 9 11 7
0 0 0 0 0 0 0 0 0 0 0 0 0 0 0 0 0 0 0 0 0 0 0 0 0 0 0 0 0 0 0 1 6 5 3 3 0 2 2 4 1 7 5 3 0 1 3 3 4 4 3 2 1 1
0 0 0 0 0 0 1 1 1 1 0 0 0 0 0 0 0 0 0 0 0 0 0 0 0 0 2 1 0 0 0 0 0 3 9 7 5 2 1 2 2 3 3 4 3 1 0 0 0 0 0 0 0 1
0 0 0 0 0 0 0 0 0 0 0 0 0 0 0 0 0 0 0 0 0 0 0 0 1 2 2 1 2 3 1 0 1 2 1 1 0 1 1 2 5 5 4 0 0 0 0 0 0 0 0 0 0 0
0 0 0 0 0 0 0 0 0 0 0 0 0 0 0 0 0 0 0 0 0 0 0 0 2 0 0 0 1 1 2 4 1 1 0 0 2 3 3 3 1 0 0 0 0 0 0 0 0 0 0 0 0 0
0 0 0 0 0 0 0 0 0 0 0 0 0 0 0 0 0 0 0 0 0 0 3 2 3 2 2 3 4 2 1 1 0 0 1 1 0 0 0 0 0 0 0 0 0 0 0 0 0 0 0 0 0 0
CIN
-0 -0 -0 -0 -0 -0 -0 -0 -0 -0 -0 -0 -0 -4 -0 -0 -1 -0 -2 -5 -0 -0 -0 -1 -3 -0 -0 -0 -0 -1 -2 -2 -14 -51 -1 -9 -5 -15 -2 -3 -40 -57 -49 -63 -0 -23 -10 -0 -0 -0 -0 -0 -0 -0
-0 -0 -0 -0 -0 -0 -0 -0 -0 -0 -0 -0 -0 -0 -0 -0 -0 -1 -0 -4 -2 -0 -0 -4 -0 -0 -3 -0 -0 -0 -0 -0 -63 -29 -37 -29 -71 -6 -1 -2 -0 -30 -41 -12 -8 -1 -0 -0 -0 -0 -0 -0 -0 -0
-0 -0 -0 -0 -0 -0 -0 -0 -0 -0 -1 -0 -0 -0 -0 -0 -0 -2 -0 -1 -0 -0 -0 -0 -0 -2 -0 -0 -1 -0 -0 -0 -0 -0 -0 -0 -28 -0 -22 -0 -0 -0 -0 -0 -0 -0 -0 -0 -0 -0 -0 -0 -0 -0
-0 -0 -0 -0 -0 -0 -0 -0 -0 -0 -0 -0 -2 -0 -0 -0 -0 -1 -0 -3 -1 -0 -0 -0 -0 -0 -2 -3 -0 -0 -0 -0 -0 -0 -0 -0 -0 -0 -0 -0 -0 -0 -0 -0 -0 -0 -0 -0 -0 -0 -0 -0 -0 -0
-0 -0 -0 -0 -0 -0 -0 -0 -0 -0 -0 -0 -0 -0 -0 -0 -1 -1 -0 -1 -2 -0 -0 -0 -0 -0 -1 -1 -0 -0 -0 -0 -0 -0 -0 -0 -0 -0 -0 -0 -0 -0 -0 -0 -0 -0 -0 -0 -0 -0 -0 -0 -0 -0
-0 -0 -0 -0 -0 -0 -0 -0 -0 -0 -0 -0 -0 -0 -0 -0 -0 -0 -0 -0 -0 -2 -0 -0 -0 -0 -0 -0 -0 -0 -0 -0 -0 -0 -0 -0 -0 -0 -0 -0 -0 -0 -0 -0 -0 -0 -0 -0 -0 -0 -0 -0 -0 -0
-0 -0 -0 -0 -0 -0 -0 -0 -0 -0 -0 -0 -0 -0 -0 -0 -0 -0 -0 -1 -0 -2 -0 -0 -0 -0 -0 -0 -0 -0 -0 -0 -0 -0 -0 -0 -0 -0 -0 -0 -0 -0 -0 -0 -0 -0 -0 -0 -0 -0 -0 -0 -0 -0
-0 -0 -0 -0 -0 -0 -0 -0 -0 -0 -0 -0 -0 -0 -0 -0 -0 -0 -1 -1 -1 -0 -0 -0 -0 -0 -0 -0 -0 -0 -0 -0 -0 -0 -0 -0 -0 -0 -0 -0 -0 -0 -0 -0 -0 -0 -0 -0 -0 -0 -0 -0 -0 -0
-0 -0 -0 -0 -0 -0 -0 -0 -0 -0 -0 -0 -0 -0 -0 -0 -0 -0 -4 -0 -0 -0 -0 -0 -0 -0 -0 -0 -0 -0 -0 -0 -0 -0 -0 -0 -0 -0 -0 -0 -0 -0 -0 -0 -0 -0 -0 -0 -0 -0 -0 -0 -0 -0
-0 -0 -0 -0 -0 -0 -0 -0 -0 -0 -0 -0 -1 -0 -0 -0 -0 -0 -0 -0 -0 -0 -0 -0 -0 -0 -0 -0 -0 -0 -0 -0 -0 -0 -0 -0 -0 -0 -0 -0 -0 -0 -0 -0 -0 -0 -0 -0 -0 -0 -0 -0 -0 -0
-0 -0 -0 -0 -0 -0 -0 -0 -0 -0 -1 -5 -0 -0 -0 -0 -0 -0 -0 -0 -0 -0 -0 -0 -0 -0 -0 -0 -0 -0 -0 -0 -0 -0 -0 -0 -0 -0 -0 -0 -0 -0 -0 -0 -0 -0 -0 -0 -0 -0 -0 -0 -0 -0
-0 -0 -1 -0 -0 -0 -0 -0 -0 -0 -0 -0 -0 -0 -0 -0 -0 -0 -0 -0 -0 -0 -0 -0 -0 -0 -0 -0 -0 -0 -0 -0 -0 -0 -0 -0 -0 -0 -0 -0 -0 -0 -0 -0 -0 -0 -0 -0 -0 -0 -0 -0 -0 -0
-0 -0 -0 -0 -0 -0 -0 -0 -0 -0 -0 -0 -0 -0 -0 -0 -0 -0 -0 -0 -0 -0 -0 -0 -0 -0 -0 -0 -0 -0 -0 -0 -0 -0 -0 -0 -0 -0 -0 -0 -0 -0 -0 -0 -0 -0 -0 -0 -0 -0 -0 -0 -0 -0
-0 -0 -0 -0 -0 -0 -0 -0 -0 -0 -0 -0 -0 -0 -0 -0 -0 -0 -0 -0 -0 -0 -0 -0 -0 -0 -0 -0 -0 -0 -0 -0 -0 -0 -0 -0 -0 -0 -0 -0 -0 -0 -0 -0 -0 -0 -0 -0 -0 -0 -0 -0 -0 -0
-0 -0 -0 -0 -0 -0 -0 -0 -0 -0 -0 -0 -0 -0 -0 -0 -0 -0 -0 -0 -0 -0 -0 -0 -0 -0 -0 -0 -0 -0 -0 -0 -0 -0 -0 -0 -0 -0 -0 -0 -0 -0 -0 -0 -0 -0 -0 -0 -0 -0 -0 -0 -0 -0
-0 -0 -6 -0 -0 -0 -0 -0 -0 -0 -0 -0 -0 -0 -0 -0 -0 -0 -0 -0 -0 -0 -0 -0 -0 -0 -0 -0 -0 -0 -0 -0 -0 -0 -0 -0 -0 -0 -0 -0 -0 -0 -0 -0 -0 -0 -0 -0 -0 -0 -0 -0 -0 -0
-0 -5 -2 -0 -0 -0 -0 -0 -0 -0 -0 -0 -0 -0 -0 -0 -0 -0 -0 -0 -0 -0 -0 -0 -0 -0 -0 -0 -0 -0 -0 -0 -0 -0 -0 -0 -0 -0 -0 -0 -0 -0 -0 -0 -0 -0 -0 -0 -0 -0 -0 -0 -0 -0
-3 -0 -0 -0 -0 -0 -0 -0 -0 -0 -0 -0 -0 -0 -0 -0 -0 -0 -0 -0 -0 -0 -0 -0 -0 -0 -0 -0 -0 -0 -0 -0 -0 -0 -0 -0 -0 -0 -0 -0 -0 -0 -0 -0 -0 -0 -0 -0 -0 -0 -0 -0 -0 -0
-0 -0 -0 -0 -0 -0 -0 -0 -0 -0 -0 -0 -0 -0 -0 -0 -0 -0 -0 -0 -0 -0 -0 -0 -0 -0 -0 -0 -0 -0 -0 -0 -0 -0 -0 -0 -0 -0 -0 -0 -0 -0 -0 -0 -0 -0 -0 -0 -0 -0 -0 -0 -0 -0
-0 -0 -0 -0 -0 -0 -0 -0 -0 -0 -0 -0 -0 -0 -0 -0 -0 -0 -0 -0 -0 -0 -0 -0 -0 -0 -0 -0 -0 -0 -0 -0 -0 -0 -0 -0 -0 -0 -0 -0 -0 -0 -0 -0 -0 -0 -0 -0 -0 -0 -0 -0 -0 -0
-0 -0 -0 -0 -0 -0 -0 -0 -0 -0 -0 -0 -0 -0 -0 -0 -0 -0 -0 -0 -0 -0 -0 -0 -0 -0 -0 -0 -0 -0 -0 -0 -0 -0 -0 -0 -0 -0 -0 -0 -0 -0 -0 -0 -0 -0 -0 -0 -0 -0 -0 -0 -0 -0
-0 -0 -0 -0 -0 -0 -0 -0 -0 -0 -0 -0 -0 -0 -0 -0 -0 -0 -0 -0 -0 -0 -0 -0 -0 -0 -0 -0 -0 -0 -0 -0 -0 -0 -0 -0 -0 -0 -0 -0 -0 -0 -0 -0 -0 -0 -0 -0 -0 -0 -0 -0 -0 -0
-0 -0 -0 -0 -0 -0 -0 -0 -0 -0 -0 -0 -0 -0 -0 -0 -0 -0 -0 -0 -0 -0 -0 -0 -0 -0 -0 -0 -0 -0 -0 -0 -0 -0 -0 -0 -0 -0 -0 -0 -0 -0 -0 -0 -0 -0 -0 -0 -0 -0 -0 -0 -0 -0
-0 -0 -0 -0 -0 -0 -0 -0 -0 -0 -0 -0 -0 -0 -0 -0 -0 -0 -0 -0 -0 -0 -0 -0 -0 -0 -0 -0 -0 -0 -0 -0 -0 -0 -0 -0 -0 -0 -0 -0 -0 -0 -0 -0 -0 -0 -0 -0 -0 -0 -0 -0 -0 -0
-0 -0 -0 -0 -0 -0 -0 -0 -0 -0 -0 -0 -0 -0 -0 -0 -0 -0 -0 -0 -0 -0 -0 -0 -0 -0 -0 -0 -0 -0 -0 -0 -0 -0 -0 -0 -0 -0 -0 -0 -0 -0 -0 -0 -1 -1 -0 -1 -0 -0 -0 -0 -0 -0
-0 -0 -0 -0 -0 -0 -0 -0 -0 -0 -0 -0 -0 -0 -0 -0 -0 -0 -0 -0 -0 -0 -0 -0 -0 -0 -0 -0 -0 -0 -0 -0 -0 -0 -0 -0 -0 -0 -0 -0 -0 -0 -0 -0 -0 -0 -0 -0 -0 -0 -0 -0 -0 -0
-0 -0 -0 -0 -0 -0 -0 -0 -0 -0 -0 -0 -0 -0 -0 -0 -0 -0 -0 -0 -0 -0 -0 -0 -0 -0 -0 -0 -0 -0 -0 -0 -0 -0 -0 -0 -0 -0 -0 -0 -0 -0 -0 -0 -0 -0 -0 -0 -0 -0 -0 -0 -0 -0
-0 -0 -0 -0 -0 -0 -0 -0 -0 -0 -0 -0 -0 -0 -0 -0 -0 -0 -0 -0 -0 -0 -0 -0 -0 -0 -0 -0 -0 -0 -0 -0 -0 -0 -0 -0 -0 -0 -0 -0 -0 -0 -0 -0 -0 -0 -0 -0 -0 -0 -0 -0 -0 -0
-0 -0 -0 -0 -0 -0 -0 -0 -0 -0 -0 -0 -0 -0 -0 -0 -0 -0 -0 -0 -0 -0 -0 -0 -0 -0 -0 -0 -0 -0 -0 -0 -0 -0 -0 -0 -0 -0 -1 -0 -0 -0 -0 -0 -0 -0 -0 -0 -0 -0 -0 -0 -0 -0
-0 -0 -0 -0 -0 -0 -0 -0 -0 -0 -0 -0 -0 -0 -0 -0 -0 -0 -0 -0 -0 -0 -0 -0 -0 -0 -0 -0 -0 -0 -2 -0 -0 -0 -0 -0 -0 -0 -0 -0 -0 -0 -0 -0 -0 -0 -0 -0 -0 -0 -0 -0 -0 -0
-0 -0 -0 -0 -0 -0 -0 -0 -0 -0 -0 -0 -0 -0 -0 -0 -0 -0 -0 -0 -0 -0 -0 -0 -0 -0 -0 -0 -0 -0 -0 -1 -0 -0 -0 -0 -0 -0 -0 -0 -0 -0 -0 -0 -0 -0 -0 -0 -0 -0 -0 -0 -0 -0
-0 -0 -0 -0 -0 -0 -0 -0 -0 -0 -0 -0 -0 -0 -0 -0 -0 -0 -0 -0 -0 -0 -0 -0 -0 -0 -0 -0 -0 -0 -0 -0 -0 -0 -0 -0 -0 -0 -0 -0 -0 -0 -0 -0 -0 -0 -0 -0 -0 -0 -0 -0 -0 -0
-0 -0 -0 -0 -0 -0 -0 -0 -0 -0 -0 -0 -0 -0 -0 -0 -0 -0 -0 -0 -0 -0 -0 -0 -0 -0 -0 -0 -0 -0 -0 -0 -0 -0 -0 -0 -0 -0 -0 -0 -0 -0 -0 -0 -0 -0 -0 -0 -0 -0 -0 -0 -0 -0
Wind_Speed
22 24 23 24 22 23 23 24 23 24 22 23 22 23 24 24 16 9 5 10 10 3 7 10 12 13 9 7 5 3 3 8 6 8 9 9 7 11 11 7 8 9 8 4 3 6 10 1 2 5 2 6 11 13
25 23 23 23 24 22 22 24 23 23 21 24 21 23 23 25 22 11 5 6 8 4 4 4 7 9 5 2 3 4 5 3 6 6 5 5 4 5 13 10 2 7 5 7 2 2 3 3 3 2 1 12 8 12
24 24 23 23 24 23 22 23 23 22 20 23 21 22 22 26 24 12 6 4 4 3 4 5 8 4 5 7 5 3 3 3 5 3 3 2 8 4 9 10 7 2 4 5 5 4 3 3 5 4 7 11 13 15
22 25 25 23 24 23 22 22 23 22 19 21 21 22 21 26 24 12 6 4 4 2 4 4 1 4 1 6 12 12 10 7 8 3 3 3 3 1 3 5 4 2 6 8 6 7 7 8 6 9 14 14 15 12
23 23 23 25 23 22 22 21 22 20 20 19 21 21 22 22 16 7 7 8 8 2 2 2 2 1 5 7 10 5 8 3 3 2 3 3 0 1 1 2 3 1 6 6 4 9 8 5 4 8 13 12 13 15
24 25 22 24 22 19 19 20 21 18 18 19 20 22 22 22 11 3 2 2 10 3 2 2 1 3 4 9 6 5 3 1 2 2 3 2 3 2 2 3 4 3 2 5 6 7 10 11 6 4 11 10 10 11
24 23 20 21 21 18 18 20 19 17 17 19 22 22 22 22 3 3 2 2 13 5 3 1 1 2 5 5 2 2 2 1 2 3 3 2 3 2 2 4 3 6 12 13 13 13 9 6 6 8 12 11 11 11
26 22 21 21 20 17 17 19 17 16 19 20 21 23 19 15 10 3 3 4 9 3 1 1 1 1 1 3 3 3 2 2 5 3 2 3 2 3 5 4 4 7 11 10 8 7 9 12 11 9 9 9 9 8
22 22 17 16 17 17 17 19 17 17 18 20 21 15 1 1 2 3 6 7 2 1 2 2 3 2 3 0 2 4 3 4 2 3 1 1 2 5 5 3 5 4 4 7 9 10 11 12 11 10 8 7 7 7
20 14 14 16 15 16 16 18 15 16 18 18 7 1 2 4 5 7 3 2 2 1 1 2 1 2 1 0 1 1 2 1 3 3 2 4 5 2 3 1 2 3 8 10 12 7 7 7 9 9 6 4 4 6
16 14 14 14 15 15 17 14 15 16 13 2 2 3 1 6 2 0 2 2 2 2 3 2 2 4 1 2 2 1 2 1 3 1 2 2 3 3 4 7 5 4 4 3 5 3 7 6 9 7 6 5 4 5
13 12 12 12 14 15 15 14 13 4 3 4 3 1 2 1 2 2 1 1 3 2 2 3 2 2 2 1 2 2 2 1 4 2 4 3 2 1 3 6 6 6 7 5 2 1 1 2 2 4 4 5 6 5
12 12 13 14 16 15 15 12 13 16 13 2 2 3 3 1 3 4 3 2 2 5 4 4 3 2 1 3 4 3 5 4 1 4 3 2 2 2 2 3 5 5 6 6 5 4 4 2 2 4 6 5 5 7
11 13 14 17 18 18 15 16 19 5 2 3 4 4 4 3 5 5 4 3 2 4 7 4 4 2 2 4 2 4 2 2 3 3 2 3 5 4 3 1 2 3 2 2 1 1 2 3 4 5 7 6 6 9
12 13 15 16 12 13 16 17 17 4 3 3 3 4 5 1 1 0 1 2 1 6 5 4 4 2 3 4 2 4 2 2 1 3 4 4 7 6 5 3 3 2 1 1 1 3 3 3 5 7 7 7 8 8
11 13 3 10 16 16 9 6 3 1 2 2 2 1 1 1 0 1 2 2 2 4 3 3 4 3 2 3 3 1 4 3 3 2 3 6 7 5 4 4 3 2 2 3 3 4 4 4 4 6 4 5 6 8
12 3 7 14 16 8 1 2 1 3 3 3 1 0 1 1 2 2 2 2 2 2 3 3 4 3 3 2 2 2 3 2 3 3 4 6 7 5 4 4 3 2 3 3 3 4 4 4 3 4 6 8 6 8
3 3 11 16 9 4 1 2 3 1 4 2 2 1 1 2 2 2 2 2 2 3 2 2 5 3 4 4 3 3 2 1 2 3 5 5 4 3 4 4 4 4 5 5 6 6 5 5 7 7 9 10 8 9
4 7 12 13 6 1 2 2 2 3 3 2 2 0 2 1 1 1 4 4 3 3 6 2 3 2 2 1 2 3 2 2 3 3 2 3 4 4 4 4 5 5 6 5 6 6 6 8 8 7 8 7 8 8
13 14 9 8 5 1 2 3 3 2 1 1 2 3 2 2 1 2 4 2 2 2 4 3 1 0 1 1 2 3 3 4 4 3 1 2 3 5 6 5 5 5 5 6 7 6 7 7 7 8 8 8 8 9
5 2 1 2 2 2 2 1 1 0 0 2 2 2 2 2 3 3 3 2 4 2 2 1 1 1 1 2 1 2 5 5 4 3 2 2 2 3 4 4 5 4 5 6 7 7 6 8 8 8 7 8 8 8
2 4 1 1 2 3 2 1 1 0 2 0 2 2 3 3 2 2 2 3 1 1 2 3 3 4 3 2 3 3 2 4 2 2 1 1 4 4 4 4 4 6 6 7 7 8 8 7 7 7 7 8 8 8
4 1 1 2 4 3 2 1 2 3 3 2 2 3 3 2 1 2 3 0 1 1 2 1 2 3 2 1 1 1 1 3 3 4 5 4 4 5 5 6 5 6 7 7 7 7 8 9 8 8 8 8 8 8
1 3 3 2 2 1 1 3 2 2 2 3 3 3 2 1 1 3 1 1 1 1 2 2 1 2 2 1 1 2 1 1 2 3 2 2 4 5 4 6 6 6 7 8 7 8 8 7 8 8 8 9 9 9
3 4 3 3 2 4 4 2 2 3 3 1 4 2 1 0 2 2 1 2 1 0 1 1 2 2 2 0 1 1 2 1 1 4 3 2 3 5 6 6 6 6 6 6 6 6 8 8 8 9 10 10 12 13
4 3 3 1 1 3 2 2 1 3 3 3 1 0 1 2 2 2 2 1 1 1 0 2 2 2 1 1 0 1 2 1 2 3 3 0 4 6 8 8 8 7 2 2 6 9 10 9 10 12 11 12 13 13
3 1 1 0 0 2 3 2 2 3 3 3 3 2 2 3 1 2 1 1 1 1 2 2 2 2 2 1 1 2 3 3 3 5 5 5 6 5 5 6 8 5 6 8 8 9 11 11 10 10 10 10 9 10
2 1 4 2 2 1 4 2 2 2 2 1 3 2 5 5 2 2 1 0 2 3 4 4 5 3 3 2 1 3 4 3 5 6 4 4 4 3 1 3 5 9 8 6 7 8 9 9 10 11 11 10 9 9
2 1 3 4 3 4 4 2 1 1 2 0 3 2 2 2 1 2 3 3 3 2 3 3 4 3 2 2 2 3 4 6 7 8 9 7 5 4 4 7 7 6 6 7 8 8 10 9 9 8 8 6 6 7
2 2 4 2 4 3 2 3 2 2 2 2 1 1 2 2 3 3 3 4 4 4 3 2 2 4 6 7 7 7 4 4 3 3 6 6 6 6 5 6 6 6 6 6 7 8 8 5 6 5 7 6 7 7
2 1 3 3 3 2 2 2 2 2 3 3 3 2 1 2 2 3 4 3 3 3 4 5 5 5 5 5 5 6 6 2 2 3 3 4 4 5 5 5 5 5 5 5 5 6 6 6 6 6 8 9 10 9
3 4 3 3 2 1 3 2 1 2 4 3 3 3 3 2 2 1 1 2 3 4 3 4 4 5 4 3 3 4 5 4 4 3 4 3 3 5 5 5 5 4 5 6 6 6 7 7 7 7 7 9 10 10
3 2 2 2 2 2 2 2 4 2 3 2 3 2 2 1 2 2 2 1 1 2 3 4 4 4 5 4 3 2 3 2 4 5 5 6 7 6 4 4 4 5 6 6 6 7 8 10 9 9 9 9 10 10
Wind_Direction
289 292 294 286 290 291 293 294 292 295 299 298 305 308 307 309 299 239 236 209 225 217 244 252 259 269 266 240 245 317 167 197 172 204 202 190 196 205 221 193 175 177 166 181 134 195 237 126 157 203 65 76 132 136
291 291 297 286 287 288 290 292 291 294 298 294 304 304 310 305 302 267 239 194 210 217 272 285 265 266 199 205 237 273 291 283 168 201 221 171 157 177 197 205 122 205 206 168 243 185 3 327 305 12 258 133 118 118
287 292 290 293 286 285 287 291 291 292 290 294 303 303 308 302 302 270 220 206 223 210 264 244 240 197 236 214 206 259 268 332 259 164 174 144 186 150 187 192 127 130 175 105 147 25 7 28 61 74 110 104 115 126
289 288 293 288 286 283 283 290 291 290 288 295 302 303 306 301 307 299 205 182 187 207 236 236 337 233 246 265 270 224 239 261 280 241 141 112 138 240 188 131 133 150 136 138 91 117 97 43 78 97 94 94 93 83
288 291 295 292 284 282 280 287 290 289 292 297 300 304 303 301 296 343 250 202 192 231 298 271 285 244 304 307 312 257 231 194 302 13 61 99 19 155 64 115 93 259 162 167 181 148 121 121 131 109 109 111 112 114
287 290 288 293 283 280 285 291 293 289 295 297 300 300 298 298 296 238 284 213 173 154 235 236 288 307 307 323 334 337 10 85 126 86 84 47 39 22 96 84 8 295 67 60 127 118 102 123 126 117 109 116 118 107
293 290 293 289 283 282 287 293 288 294 298 299 296 294 298 293 257 234 300 324 181 152 233 130 257 270 315 305 300 333 355 64 50 61 51 72 16 315 84 95 111 43 74 86 99 102 95 130 137 120 116 112 100 95
287 288 281 277 279 283 288 296 293 298 298 297 296 298 293 302 282 236 257 252 142 182 173 228 159 204 280 339 343 7 10 17 33 82 35 21 15 354 71 41 42 59 79 64 51 56 113 117 118 115 119 126 119 121
297 290 285 267 271 283 290 302 295 299 299 297 307 314 305 231 197 220 209 133 49 108 189 194 204 149 187 216 312 352 9 57 336 67 55 240 12 49 117 348 51 44 79 112 82 95 120 132 137 141 141 149 147 150
290 281 272 273 277 283 286 296 297 300 299 304 304 356 249 217 233 120 75 115 175 207 179 195 158 147 175 156 84 132 73 85 54 20 303 45 56 27 27 149 115 96 122 123 104 104 119 137 158 172 179 156 168 170
285 277 270 278 278 280 289 295 301 309 291 170 212 236 254 149 85 28 119 160 132 232 191 151 174 145 243 146 151 353 115 43 95 76 115 84 83 40 38 74 43 39 173 152 54 103 175 169 179 185 197 192 180 183
287 289 287 285 285 289 289 289 306 306 269 246 196 149 57 82 51 86 88 125 218 206 165 151 151 136 129 161 109 14 101 40 85 355 66 81 125 166 49 65 65 65 79 96 49 48 62 221 194 204 204 208 214 222
286 290 296 291 298 293 288 295 287 286 284 242 223 173 183 63 75 175 168 206 217 176 177 168 107 61 102 48 62 44 55 53 92 40 74 109 159 191 74 52 64 69 72 78 80 77 93 99 139 197 215 223 221 231
286 289 288 297 295 287 290 287 275 231 206 215 190 156 212 183 230 195 204 180 161 139 139 115 83 71 61 56 57 72 49 125 81 92 134 183 192 163 150 136 104 91 100 92 58 279 265 253 255 245 240 237 228 242
290 293 293 310 330 321 307 285 160 123 192 213 165 196 202 202 90 135 145 116 98 136 123 100 79 89 56 91 31 114 86 94 205 159 169 178 173 163 163 166 165 150 162 277 273 275 278 272 259 268 254 246 233 244
287 305 283 355 330 336 318 74 86 83 261 227 206 119 74 132 143 141 136 134 175 141 97 64 98 92 84 117 101 145 125 159 174 183 162 141 156 170 167 178 187 192 221 271 281 269 271 254 246 263 289 257 234 229
298 221 323 329 312 299 214 85 114 211 216 191 149 56 181 184 141 144 150 174 132 79 93 110 71 61 98 73 126 198 175 180 166 144 146 155 159 164 169 177 195 212 257 278 285 281 270 278 293 276 278 281 270 271
245 280 319 313 312 139 178 186 223 201 80 49 85 274 103 51 115 146 126 95 110 103 130 112 129 136 158 153 202 214 181 108 121 139 161 170 172 180 189 205 220 232 249 257 255 259 254 258 265 264 267 271 277 274
243 276 299 306 302 183 299 358 4 88 45 328 280 156 63 60 49 87 99 76 74 96 113 87 86 107 179 189 132 136 138 148 139 165 176 194 207 203 220 232 250 254 255 257 267 264 265 262 262 271 272 273 265 270
299 283 273 274 291 96 54 13 19 56 68 319 333 30 62 35 19 46 83 54 65 69 45 47 67 111 150 161 168 140 147 143 129 138 186 217 218 227 241 249 259 266 271 274 271 258 273 276 263 255 252 250 253 256
307 144 172 26 358 57 74 39 19 37 330 83 272 54 51 32 42 35 53 341 57 47 76 93 120 137 163 111 124 127 143 164 182 177 191 236 208 233 267 268 268 267 257 271 273 273 252 257 267 270 264 258 247 246
260 125 71 304 69 53 67 41 326 293 78 35 43 32 62 49 27 27 323 56 74 185 165 151 171 151 144 169 185 202 206 205 231 242 256 260 281 282 288 280 295 285 278 269 272 270 273 274 273 271 267 264 266 263
194 72 38 31 80 44 14 326 68 13 69 57 5 58 42 60 15 321 63 174 270 225 172 163 178 188 174 90 93 288 235 236 252 259 271 271 271 271 275 281 273 273 280 276 268 272 277 282 282 273 278 276 273 273
54 69 83 72 72 128 338 27 32 53 68 56 72 76 53 67 337 54 123 247 245 124 182 201 144 97 63 43 276 292 324 231 266 282 281 296 297 297 300 291 288 277 275 290 290 291 298 296 294 291 286 281 280 277
74 357 72 32 350 64 50 44 29 62 84 44 76 9 309 360 77 79 191 280 328 296 238 160 149 178 192 271 353 49 36 42 342 311 317 284 305 314 305 299 301 297 293 292 293 298 298 293 287 285 289 289 289 286
80 318 71 163 321 101 184 81 128 137 112 81 90 39 28 94 92 240 213 253 286 337 71 166 153 126 117 178 15 14 359 346 320 291 299 315 317 298 297 301 306 308 355 315 301 298 296 298 298 299 299 297 294 294
87 318 61 257 7 108 74 70 113 101 103 149 183 113 90 105 229 269 296 251 110 77 66 67 51 70 91 83 44 360 322 303 263 281 289 276 261 250 250 280 300 309 307 304 302 302 305 308 312 314 314 314 309 309
165 145 139 269 65 34 133 84 94 115 163 157 112 103 134 158 201 255 218 356 75 64 63 53 39 42 71 56 338 314 308 309 291 282 282 272 279 313 33 327 306 312 309 308 314 320 315 312 312 312 311 311 316 325
58 8 89 29 35 45 44 79 89 21 351 103 108 161 206 215 318 20 22 21 33 46 74 61 23 10 357 330 291 290 315 324 329 329 328 326 335 329 351 323 313 310 315 312 311 315 319 319 319 322 339 345 329 329
353 28 84 62 67 57 30 1 61 9 16 21 360 350 43 56 22 2 19 33 56 81 90 77 18 356 343 336 334 328 312 314 316 301 318 323 331 329 324 318 316 322 328 336 338 337 343 354 3 9 9 9 6 2
345 75 82 68 88 59 33 11 11 60 24 21 7 69 41 341 358 34 72 89 103 92 50 13 350 347 333 334 320 320 323 324 311 346 349 325 320 319 315 319 334 343 354 2 7 14 11 17 18 16 19 19 14 16
46 45 106 106 130 34 28 67 44 51 7 44 22 357 355 29 37 341 335 47 57 34 3 1 325 316 310 286 287 280 301 327 332 340 335 319 330 347 349 358 6 20 34 37 35 35 38 40 35 28 26 29 28 27
62 63 78 100 58 34 353 84 32 31 41 53 30 26 9 8 248 279 304 264 320 329 332 322 306 293 298 307 321 352 348 354 4 13 29 46 39 24 21 23 36 46 55 53 46 43 45 48 43 36 34 35 35 32